• în Republica Moldova
  • Lista ţărilor
  • Pe 7 zile
  • Temperatura apei
  • Hartă satelitară
  • Meteo pe hartă
  • Widget-uri
  • user-avatar
    Intrare

    Meteo pe oră la Eisenstadt

    Astăzi, 17 Octombrie, Miercuri

    Timp Temperatura Precipitaţii Vânt Presiune Umiditate
    00:00 +12°C° 0 mm 1 m/s 725 mmHg 74%
    01:00 +12°C° 0 mm 1 m/s 726 mmHg 74%
    02:00 +11°C° 0 mm 1 m/s 725 mmHg 75%
    03:00 +11°C° 0 mm 1 m/s 725 mmHg 76%
    04:00 +11°C° 0 mm 1 m/s 725 mmHg 78%
    05:00 +11°C° 0 mm 1 m/s 725 mmHg 78%
    06:00 +11°C° 0 mm 1 m/s 725 mmHg 78%
    07:00 +11°C° 0 mm 1 m/s 725 mmHg 78%
    08:00 +13°C° 0 mm 1 m/s 725 mmHg 70%
    09:00 +16°C° 0 mm 1 m/s 725 mmHg 63%
    10:00 +19°C° 0 mm 1 m/s 726 mmHg 55%
    11:00 +18°C° 0.2 mm 2 m/s 725 mmHg 56%
    12:00 +19°C° 0.2 mm 2 m/s 725 mmHg 56%
    13:00 +19°C° 0.2 mm 2 m/s 725 mmHg 57%
    14:00 +18°C° 0.5 mm 2 m/s 725 mmHg 63%
    15:00 +18°C° 0.5 mm 1 m/s 724 mmHg 69%
    16:00 +18°C° 0.5 mm 1 m/s 724 mmHg 75%
    17:00 +16°C° 0.1 mm 1 m/s 724 mmHg 77%
    18:00 +15°C° 0.1 mm 1 m/s 724 mmHg 80%
    19:00 +14°C° 0.1 mm 1 m/s 724 mmHg 83%
    20:00 +14°C° 0.1 mm 1 m/s 724 mmHg 83%
    21:00 +13°C° 0.1 mm 1 m/s 724 mmHg 83%
    22:00 +13°C° 0.1 mm 1 m/s 725 mmHg 82%
    23:00 +13°C° 0 mm 1 m/s 724 mmHg 81%

    Mâine, 18 Octombrie, Joi

    Timp Temperatura Precipitaţii Vânt Presiune Umiditate
    00:00 +13°C° 0 mm 1 m/s 724 mmHg 81%
    01:00 +13°C° 0 mm 1 m/s 724 mmHg 80%
    02:00 +12°C° 0 mm 1 m/s 724 mmHg 79%
    03:00 +12°C° 0 mm 1 m/s 724 mmHg 79%
    04:00 +12°C° 0 mm 1 m/s 724 mmHg 78%
    05:00 +12°C° 0 mm 1 m/s 724 mmHg 78%
    06:00 +12°C° 0 mm 1 m/s 724 mmHg 78%
    07:00 +12°C° 0 mm 1 m/s 724 mmHg 78%
    08:00 +14°C° 0 mm 1 m/s 724 mmHg 71%
    09:00 +15°C° 0 mm 1 m/s 725 mmHg 64%
    10:00 +18°C° 0 mm 1 m/s 725 mmHg 57%
    11:00 +19°C° 0 mm 1 m/s 725 mmHg 53%
    12:00 +20°C° 0 mm 1 m/s 724 mmHg 49%
    13:00 +21°C° 0 mm 1 m/s 724 mmHg 45%
    14:00 +21°C° 0 mm 1 m/s 724 mmHg 47%
    15:00 +20°C° 0 mm 1 m/s 724 mmHg 50%
    16:00 +19°C° 0 mm 1 m/s 724 mmHg 52%
    17:00 +18°C° 0 mm 1 m/s 724 mmHg 56%
    18:00 +15°C° 0 mm 1 m/s 724 mmHg 60%
    19:00 +14°C° 0 mm 1 m/s 724 mmHg 64%
    20:00 +13°C° 0 mm 1 m/s 725 mmHg 67%
    21:00 +13°C° 0 mm 1 m/s 725 mmHg 69%
    22:00 +13°C° 0 mm 2 m/s 725 mmHg 72%
    23:00 +12°C° 0 mm 2 m/s 725 mmHg 75%

    Poimâine, 19 Octombrie, Vineri

    Timp Temperatura Precipitaţii Vânt Presiune Umiditate
    00:00 +12°C° 0 mm 2 m/s 725 mmHg 78%
    01:00 +12°C° 0 mm 2 m/s 725 mmHg 81%
    02:00 +10°C° 0 mm 2 m/s 725 mmHg 82%
    03:00 +10°C° 0 mm 2 m/s 725 mmHg 84%
    04:00 +10°C° 0 mm 2 m/s 725 mmHg 86%
    05:00 +10°C° 0 mm 2 m/s 725 mmHg 86%
    06:00 +10°C° 0 mm 2 m/s 725 mmHg 86%
    07:00 +10°C° 0 mm 2 m/s 726 mmHg 86%
    08:00 +13°C° 0 mm 2 m/s 726 mmHg 77%
    09:00 +15°C° 0 mm 2 m/s 726 mmHg 68%
    10:00 +17°C° 0 mm 3 m/s 726 mmHg 59%
    11:00 +18°C° 0 mm 3 m/s 726 mmHg 56%
    12:00 +19°C° 0 mm 3 m/s 726 mmHg 53%
    13:00 +19°C° 0 mm 3 m/s 726 mmHg 50%
    14:00 +19°C° 0 mm 3 m/s 726 mmHg 52%
    15:00 +18°C° 0 mm 3 m/s 726 mmHg 55%
    16:00 +18°C° 0 mm 2 m/s 726 mmHg 57%
    17:00 +16°C° 0 mm 2 m/s 726 mmHg 63%
    18:00 +14°C° 0 mm 2 m/s 726 mmHg 69%
    19:00 +13°C° 0 mm 2 m/s 726 mmHg 74%
    20:00 +12°C° 0 mm 2 m/s 727 mmHg 76%
    21:00 +12°C° 0 mm 2 m/s 727 mmHg 78%
    22:00 +12°C° 0 mm 2 m/s 727 mmHg 81%
    23:00 +10°C° 0 mm 2 m/s 727 mmHg 83%

    20 Octombrie, Sâmbătă

    Timp Temperatura Precipitaţii Vânt Presiune Umiditate
    00:00 +10°C° 0 mm 2 m/s 727 mmHg 85%
    01:00 +10°C° 0 mm 2 m/s 727 mmHg 87%
    02:00 +9°C° 0 mm 2 m/s 727 mmHg 88%
    03:00 +9°C° 0 mm 2 m/s 727 mmHg 90%
    04:00 +9°C° 0 mm 2 m/s 727 mmHg 91%
    05:00 +9°C° 0 mm 2 m/s 728 mmHg 91%
    06:00 +9°C° 0 mm 2 m/s 728 mmHg 91%
    07:00 +9°C° 0 mm 2 m/s 728 mmHg 91%
    08:00 +12°C° 0 mm 2 m/s 728 mmHg 82%
    09:00 +12°C° 0 mm 3 m/s 729 mmHg 73%
    10:00 +14°C° 0 mm 3 m/s 729 mmHg 64%
    11:00 +16°C° 0 mm 3 m/s 729 mmHg 60%
    12:00 +17°C° 0 mm 3 m/s 729 mmHg 57%
    13:00 +17°C° 0 mm 3 m/s 729 mmHg 54%
    14:00 +17°C° 0 mm 3 m/s 729 mmHg 55%
    15:00 +16°C° 0 mm 3 m/s 729 mmHg 57%
    16:00 +16°C° 0 mm 3 m/s 729 mmHg 58%
    17:00 +13°C° 0 mm 3 m/s 729 mmHg 63%
    18:00 +13°C° 0 mm 2 m/s 729 mmHg 67%
    19:00 +12°C° 0 mm 2 m/s 729 mmHg 71%
    20:00 +10°C° 0 mm 2 m/s 729 mmHg 74%
    21:00 +10°C° 0 mm 2 m/s 730 mmHg 77%
    22:00 +9°C° 0 mm 2 m/s 730 mmHg 80%
    23:00 +9°C° 0 mm 3 m/s 730 mmHg 80%

    21 Octombrie, Duminică

    Timp Temperatura Precipitaţii Vânt Presiune Umiditate
    00:00 +9°C° 0 mm 3 m/s 730 mmHg 81%
    01:00 +8°C° 0 mm 3 m/s 730 mmHg 81%
    02:00 +8°C° 0 mm 3 m/s 730 mmHg 82%
    03:00 +7°C° 0 mm 3 m/s 730 mmHg 82%
    04:00 +7°C° 0 mm 3 m/s 730 mmHg 83%
    05:00 +5°C° 0 mm 3 m/s 730 mmHg 83%
    06:00 +5°C° 0 mm 3 m/s 730 mmHg 83%
    07:00 +5°C° 0 mm 3 m/s 730 mmHg 83%
    08:00 +6°C° 0 mm 4 m/s 730 mmHg 74%
    09:00 +8°C° 0 mm 4 m/s 730 mmHg 65%
    10:00 +10°C° 0 mm 4 m/s 730 mmHg 56%
    11:00 +11°C° 0 mm 4 m/s 729 mmHg 51%
    12:00 +12°C° 0 mm 4 m/s 729 mmHg 47%
    13:00 +13°C° 0 mm 5 m/s 729 mmHg 43%
    14:00 +12°C° 0 mm 5 m/s 728 mmHg 45%
    15:00 +10°C° 0 mm 5 m/s 728 mmHg 48%
    16:00 +10°C° 0 mm 5 m/s 728 mmHg 50%
    17:00 +10°C° 0 mm 4 m/s 728 mmHg 54%
    18:00 +7°C° 0 mm 4 m/s 728 mmHg 59%
    19:00 +7°C° 0 mm 3 m/s 729 mmHg 64%
    20:00 +7°C° 0 mm 3 m/s 729 mmHg 66%
    21:00 +5°C° 0 mm 3 m/s 729 mmHg 69%
    22:00 +5°C° 0 mm 3 m/s 729 mmHg 72%
    23:00 +4°C° 0 mm 3 m/s 729 mmHg 73%

    22 Octombrie, Luni

    Timp Temperatura Precipitaţii Vânt Presiune Umiditate
    00:00 +4°C° 0 mm 3 m/s 729 mmHg 75%
    01:00 +5°C° 0 mm 2 m/s 729 mmHg 77%
    02:00 +4°C° 0 mm 2 m/s 729 mmHg 78%
    03:00 +4°C° 0 mm 2 m/s 728 mmHg 80%
    04:00 +4°C° 0 mm 2 m/s 728 mmHg 81%
    05:00 +3°C° 0 mm 3 m/s 728 mmHg 80%
    06:00 +3°C° 0 mm 3 m/s 729 mmHg 80%
    07:00 +3°C° 0 mm 3 m/s 729 mmHg 79%
    08:00 +5°C° 0 mm 3 m/s 729 mmHg 70%
    09:00 +7°C° 0 mm 4 m/s 729 mmHg 61%
    10:00 +9°C° 0 mm 5 m/s 729 mmHg 52%
    11:00 +10°C° 0 mm 5 m/s 729 mmHg 49%
    12:00 +12°C° 0 mm 5 m/s 729 mmHg 45%
    13:00 +13°C° 0 mm 5 m/s 728 mmHg 42%
    14:00 +12°C° 0 mm 5 m/s 728 mmHg 44%
    15:00 +12°C° 0 mm 4 m/s 728 mmHg 46%
    16:00 +11°C° 0 mm 4 m/s 728 mmHg 49%
    17:00 +10°C° 0 mm 4 m/s 728 mmHg 54%
    18:00 +8°C° 0 mm 4 m/s 729 mmHg 59%
    19:00 +7°C° 0 mm 4 m/s 729 mmHg 65%
    20:00 +7°C° 0 mm 4 m/s 729 mmHg 68%
    21:00 +6°C° 0 mm 4 m/s 729 mmHg 71%
    22:00 +6°C° 0 mm 4 m/s 729 mmHg 74%
    23:00 +6°C° 0 mm 4 m/s 729 mmHg 77%
    Arată mai mult